User: anonymous   Login
Location: Dackenheim
(49.5215°N, 8.1854°E)
Time: 23:19:37
(UTC+00:00)
Language:

DOVE 4 - Orbit

View from above orbital plane
View from above orbital plane
View from above satellite
View from above satellite

Ground track
Ground track

The orbit is defined by the following mean orbital elements,

1 39430U          26072.43461115 +.00000000 +00000-0 +24491-3 0 00007
2 39430  97.6572 278.9062 0130010  25.5646 335.1914 14.69112735    09
Epoch (UTC): 13 March 2026 10:25:50
Eccentricity: 0.0130010
inclination: 97.6572°
perigee height: 572 km
apogee height: 755 km
right ascension of ascending node: 278.9062°
argument of perigee: 25.5646°
revolutions per day: 14.69112735
mean anomaly at epoch: 335.1914°

The dashed part of the orbit path shows where the satellite is in the earth's shadow,  

DLR